When you browse on this site, cookies collect data to enhance your experience and personalize the content and advertising you see.
Visit our Privacy Policy to learn more. By continuing to use the site, you agree to this use of cookies and data.
  • In Schweiz
  • Länderverzeichnis
  • Für 7 Tage
  • Wassertemperatur
  • Satellitenkarten
  • Wetterkarte
  • Widgets
  • user-avatar
    Anmelden

    Stündliche Wetter Arbela

    Heute, 19 Dezember, Mittwoch

    Zeit Temperatur Niederschläge Wind Luftdruck Luftfeuchtigkeit
    00:00 +11°C° 0 mm 1 m/S 733 mmHg 86%
    01:00 +11°C° 0 mm 1 m/S 733 mmHg 85%
    02:00 +10°C° 0 mm 1 m/S 733 mmHg 85%
    03:00 +10°C° 0 mm 1 m/S 732 mmHg 87%
    04:00 +10°C° 0 mm 1 m/S 732 mmHg 86%
    05:00 +10°C° 0 mm 1 m/S 732 mmHg 85%
    06:00 +10°C° 0 mm 1 m/S 732 mmHg 83%
    07:00 +11°C° 0 mm 1 m/S 732 mmHg 79%
    08:00 +11°C° 0 mm 1 m/S 732 mmHg 74%
    09:00 +12°C° 0 mm 1 m/S 732 mmHg 68%
    10:00 +13°C° 0 mm 1 m/S 732 mmHg 63%
    11:00 +14°C° 0 mm 1 m/S 732 mmHg 58%
    12:00 +15°C° 0 mm 1 m/S 731 mmHg 52%
    13:00 +16°C° 0 mm 1 m/S 731 mmHg 51%
    14:00 +16°C° 0 mm 1 m/S 731 mmHg 49%
    15:00 +18°C° 0 mm 1 m/S 730 mmHg 47%
    16:00 +16°C° 0 mm 1 m/S 730 mmHg 51%
    17:00 +15°C° 0 mm 1 m/S 730 mmHg 55%
    18:00 +14°C° 0 mm 1 m/S 730 mmHg 60%
    19:00 +13°C° 0 mm 1 m/S 730 mmHg 59%
    20:00 +13°C° 0 mm 2 m/S 730 mmHg 59%
    21:00 +13°C° 0 mm 2 m/S 729 mmHg 58%
    22:00 +13°C° 0 mm 2 m/S 729 mmHg 57%
    23:00 +12°C° 0 mm 2 m/S 729 mmHg 56%

    Morgen, 20 Dezember, Donnerstag

    Zeit Temperatur Niederschläge Wind Luftdruck Luftfeuchtigkeit
    00:00 +12°C° 0 mm 2 m/S 729 mmHg 56%
    01:00 +12°C° 0 mm 2 m/S 729 mmHg 55%
    02:00 +12°C° 0 mm 1 m/S 729 mmHg 55%
    03:00 +12°C° 0 mm 1 m/S 728 mmHg 54%
    04:00 +12°C° 0.1 mm 2 m/S 728 mmHg 54%
    05:00 +12°C° 0.1 mm 2 m/S 728 mmHg 54%
    06:00 +12°C° 0.1 mm 3 m/S 728 mmHg 55%
    07:00 +12°C° 0.3 mm 3 m/S 728 mmHg 57%
    08:00 +11°C° 0.3 mm 4 m/S 728 mmHg 59%
    09:00 +11°C° 0.3 mm 4 m/S 728 mmHg 61%
    10:00 +11°C° 0.5 mm 4 m/S 728 mmHg 64%
    11:00 +11°C° 0.5 mm 3 m/S 728 mmHg 66%
    12:00 +12°C° 0.5 mm 2 m/S 728 mmHg 68%
    13:00 +12°C° 0.7 mm 2 m/S 727 mmHg 71%
    14:00 +12°C° 0.7 mm 2 m/S 727 mmHg 73%
    15:00 +12°C° 0.7 mm 2 m/S 727 mmHg 75%
    16:00 +10°C° 0.3 mm 2 m/S 727 mmHg 76%
    17:00 +10°C° 0.3 mm 2 m/S 727 mmHg 77%
    18:00 +10°C° 0.3 mm 2 m/S 727 mmHg 79%
    19:00 +10°C° 0.2 mm 2 m/S 728 mmHg 79%
    20:00 +10°C° 0.2 mm 2 m/S 728 mmHg 79%
    21:00 +10°C° 0.2 mm 2 m/S 728 mmHg 79%
    22:00 +10°C° 0.2 mm 2 m/S 728 mmHg 79%
    23:00 +10°C° 0.2 mm 2 m/S 729 mmHg 80%

    übermorgen, 21 Dezember, Freitag

    Zeit Temperatur Niederschläge Wind Luftdruck Luftfeuchtigkeit
    00:00 +11°C° 0.2 mm 1 m/S 729 mmHg 80%
    01:00 +10°C° 0 mm 1 m/S 729 mmHg 80%
    02:00 +10°C° 0 mm 1 m/S 729 mmHg 80%
    03:00 +10°C° 0 mm 1 m/S 729 mmHg 80%
    04:00 +10°C° 0 mm 1 m/S 729 mmHg 80%
    05:00 +9°C° 0 mm 1 m/S 729 mmHg 80%
    06:00 +9°C° 0 mm 1 m/S 729 mmHg 80%
    07:00 +10°C° 0 mm 1 m/S 729 mmHg 77%
    08:00 +11°C° 0 mm 1 m/S 730 mmHg 73%
    09:00 +11°C° 0 mm 1 m/S 730 mmHg 70%
    10:00 +12°C° 0 mm 1 m/S 730 mmHg 66%
    11:00 +13°C° 0 mm 1 m/S 730 mmHg 61%
    12:00 +14°C° 0 mm 1 m/S 730 mmHg 57%
    13:00 +14°C° 0 mm 1 m/S 729 mmHg 56%
    14:00 +15°C° 0 mm 1 m/S 729 mmHg 55%
    15:00 +15°C° 0 mm 1 m/S 729 mmHg 54%
    16:00 +14°C° 0 mm 2 m/S 729 mmHg 58%
    17:00 +13°C° 0 mm 2 m/S 729 mmHg 62%
    18:00 +13°C° 0 mm 2 m/S 729 mmHg 66%
    19:00 +12°C° 0 mm 2 m/S 729 mmHg 67%
    20:00 +12°C° 0 mm 1 m/S 730 mmHg 69%
    21:00 +11°C° 0 mm 1 m/S 730 mmHg 70%
    22:00 +11°C° 0 mm 1 m/S 730 mmHg 71%
    23:00 +11°C° 0 mm 1 m/S 730 mmHg 71%

    22 Dezember, Samstag

    Zeit Temperatur Niederschläge Wind Luftdruck Luftfeuchtigkeit
    00:00 +10°C° 0 mm 1 m/S 730 mmHg 71%
    01:00 +10°C° 0 mm 1 m/S 730 mmHg 71%
    02:00 +10°C° 0 mm 1 m/S 730 mmHg 70%
    03:00 +10°C° 0 mm 1 m/S 730 mmHg 69%
    04:00 +9°C° 0 mm 1 m/S 729 mmHg 68%
    05:00 +9°C° 0 mm 1 m/S 729 mmHg 67%
    06:00 +9°C° 0 mm 1 m/S 729 mmHg 66%
    07:00 +10°C° 0 mm 1 m/S 730 mmHg 62%
    08:00 +10°C° 0 mm 1 m/S 730 mmHg 58%
    09:00 +11°C° 0 mm 1 m/S 730 mmHg 54%
    10:00 +12°C° 0 mm 1 m/S 730 mmHg 49%
    11:00 +13°C° 0 mm 1 m/S 730 mmHg 44%
    12:00 +14°C° 0 mm 1 m/S 729 mmHg 40%
    13:00 +15°C° 0 mm 1 m/S 729 mmHg 39%
    14:00 +15°C° 0 mm 1 m/S 729 mmHg 38%
    15:00 +15°C° 0 mm 1 m/S 728 mmHg 37%
    16:00 +14°C° 0 mm 1 m/S 729 mmHg 43%
    17:00 +13°C° 0 mm 1 m/S 729 mmHg 48%
    18:00 +12°C° 0 mm 1 m/S 729 mmHg 54%
    19:00 +12°C° 0 mm 1 m/S 729 mmHg 54%
    20:00 +12°C° 0 mm 1 m/S 729 mmHg 55%
    21:00 +12°C° 0 mm 1 m/S 729 mmHg 56%
    22:00 +11°C° 0 mm 1 m/S 729 mmHg 57%
    23:00 +11°C° 0 mm 1 m/S 729 mmHg 57%

    23 Dezember, Sonntag

    Zeit Temperatur Niederschläge Wind Luftdruck Luftfeuchtigkeit
    00:00 +11°C° 0 mm 1 m/S 729 mmHg 58%
    01:00 +10°C° 0 mm 1 m/S 729 mmHg 58%
    02:00 +10°C° 0 mm 1 m/S 729 mmHg 58%
    03:00 +9°C° 0 mm 0 m/S 729 mmHg 58%
    04:00 +9°C° 0 mm 1 m/S 729 mmHg 58%
    05:00 +9°C° 0 mm 1 m/S 729 mmHg 58%
    06:00 +9°C° 0 mm 1 m/S 729 mmHg 57%
    07:00 +10°C° 0 mm 1 m/S 729 mmHg 54%
    08:00 +11°C° 0 mm 1 m/S 730 mmHg 50%
    09:00 +12°C° 0 mm 1 m/S 730 mmHg 46%
    10:00 +12°C° 0 mm 1 m/S 730 mmHg 43%
    11:00 +12°C° 0 mm 0 m/S 730 mmHg 40%
    12:00 +13°C° 0 mm 0 m/S 729 mmHg 37%
    13:00 +13°C° 0 mm 0 m/S 729 mmHg 38%
    14:00 +15°C° 0 mm 1 m/S 729 mmHg 38%
    15:00 +15°C° 0 mm 1 m/S 729 mmHg 38%
    16:00 +14°C° 0 mm 1 m/S 729 mmHg 43%
    17:00 +13°C° 0 mm 1 m/S 729 mmHg 48%
    18:00 +12°C° 0 mm 1 m/S 729 mmHg 53%
    19:00 +12°C° 0 mm 1 m/S 730 mmHg 55%
    20:00 +11°C° 0 mm 1 m/S 730 mmHg 56%
    21:00 +11°C° 0 mm 1 m/S 730 mmHg 58%
    22:00 +9°C° 0 mm 0 m/S 730 mmHg 58%
    23:00 +9°C° 0 mm 0 m/S 730 mmHg 59%

    24 Dezember, Montag

    Zeit Temperatur Niederschläge Wind Luftdruck Luftfeuchtigkeit
    00:00 +9°C° 0 mm 0 m/S 730 mmHg 60%
    01:00 +8°C° 0 mm 0 m/S 730 mmHg 60%
    02:00 +8°C° 0 mm 0 m/S 730 mmHg 60%
    03:00 +8°C° 0 mm 0 m/S 730 mmHg 61%
    04:00 +7°C° 0 mm 0 m/S 730 mmHg 61%
    05:00 +8°C° 0 mm 1 m/S 730 mmHg 61%
    06:00 +8°C° 0 mm 1 m/S 730 mmHg 61%
    07:00 +9°C° 0 mm 1 m/S 730 mmHg 58%
    08:00 +10°C° 0 mm 1 m/S 731 mmHg 54%
    09:00 +11°C° 0 mm 1 m/S 731 mmHg 50%
    10:00 +11°C° 0 mm 1 m/S 731 mmHg 48%
    11:00 +12°C° 0 mm 1 m/S 730 mmHg 47%
    12:00 +12°C° 0 mm 0 m/S 730 mmHg 45%
    13:00 +13°C° 0 mm 1 m/S 730 mmHg 44%
    14:00 +14°C° 0 mm 1 m/S 729 mmHg 43%
    15:00 +14°C° 0 mm 1 m/S 729 mmHg 43%
    16:00 +13°C° 0 mm 1 m/S 729 mmHg 47%
    17:00 +12°C° 0 mm 1 m/S 730 mmHg 52%
    18:00 +11°C° 0 mm 1 m/S 730 mmHg 56%
    19:00 +11°C° 0 mm 1 m/S 730 mmHg 58%
    20:00 +10°C° 0 mm 1 m/S 730 mmHg 59%
    21:00 +9°C° 0 mm 0 m/S 730 mmHg 60%
    22:00 +9°C° 0 mm 0 m/S 731 mmHg 60%
    23:00 +8°C° 0 mm 0 m/S 731 mmHg 61%
    Mehr zeigen